Location: Saint Louis
(38.6272°N, 90.1978°W)
Time: 06:33:11
(UTC-05:00)

ISS - Pass Details

Date: 19 December 2012
Orbit: 401 x 404 km, 51.6° (Epoch: 27 July)

Event Time Altitude Azimuth Distance (km) Brightness Sun altitude
Rises 17:04:37 0° 276° (W) 2,393 1.7 -4.7°
Reaches altitude 10° 17:07:20 10° 299° (WNW) 1,531 0.1 -5.2°
Maximum altitude 17:09:33 16° 340° (NNW) 1,217 -1.0 -5.6°
Drops below altitude 10° 17:11:47 10° 20° (NNE) 1,535 -0.8 -5.9°
Enters shadow 17:13:12 - 35° (NE) 1,954 -0.4 -6.2°
